Wind_Speed
50 50 50 50 51 52 53 54 54 55 56 56 56 55 56 56 56 56 56 56 56 57 58 59 61 62 64 65 66 68 69 70 70 71 71 71 72 72 72 73 72 72
51 51 51 51 52 53 53 54 56 57 58 59 59 59 60 59 58 58 58 58 59 59 60 61 62 63 65 66 67 68 68 69 69 70 70 70 71 71 71 71 70 70
51 52 52 53 53 53 54 56 58 59 61 63 63 64 63 61 60 60 59 60 61 61 62 63 64 65 66 66 67 67 68 68 68 69 69 70 69 69 69 69 69 70
51 52 53 54 55 55 57 59 60 62 65 66 66 66 64 63 62 61 62 62 63 63 63 64 65 66 66 66 66 66 67 67 68 68 68 68 68 68 68 69 69 70
51 52 54 56 57 59 61 63 64 65 67 68 67 66 65 65 64 64 64 64 64 65 65 65 65 65 65 65 65 65 65 66 66 67 67 67 67 68 68 69 69 70
52 54 56 58 60 62 63 65 66 66 67 67 67 67 66 66 65 65 65 65 65 65 65 65 64 64 63 63 63 64 64 64 65 66 67 67 68 68 68 69 70 71
54 55 57 59 60 62 63 64 65 66 66 66 67 67 66 66 65 65 65 65 65 64 63 62 62 61 61 61 62 63 63 64 66 66 67 68 68 68 69 70 71 73
54 56 58 59 60 62 63 64 65 65 65 66 66 66 65 65 64 64 63 63 62 61 60 60 59 59 60 61 62 64 65 66 67 67 67 68 68 69 69 71 72 73
55 57 58 59 61 62 63 64 64 65 65 65 64 64 63 62 62 61 61 60 60 59 58 58 59 60 62 63 65 66 67 67 67 67 67 68 68 69 70 71 72 73
58 59 60 60 61 62 63 63 63 63 63 62 62 61 60 60 60 59 59 59 58 58 58 59 61 63 65 66 67 67 67 67 67 67 67 67 68 69 70 71 72 73
60 61 61 61 61 62 63 63 62 62 61 60 60 60 60 59 59 59 58 58 58 59 60 62 64 65 67 67 67 66 66 66 66 66 66 68 69 70 70 71 72 73
60 61 61 61 62 62 62 61 61 60 60 60 60 60 60 59 58 58 58 59 60 61 63 65 66 66 66 66 65 65 64 65 65 65 66 67 68 69 70 71 72 73
60 60 60 60 60 61 61 60 60 60 60 61 61 60 59 58 58 58 59 60 62 63 65 66 66 66 65 64 63 63 63 64 64 65 66 67 68 69 70 71 72 73
59 59 59 59 60 61 61 61 61 60 60 60 59 58 57 57 59 60 61 62 63 65 65 65 64 64 63 62 62 62 63 63 64 65 66 67 68 70 71 72 73 74
60 60 60 61 61 61 61 60 59 57 56 56 56 56 57 59 60 61 62 63 64 64 64 63 63 62 61 61 61 62 62 63 64 65 66 67 68 69 71 72 73 75
61 60 60 60 60 60 59 57 55 53 54 54 55 57 59 60 61 62 63 63 63 63 62 62 62 61 61 61 61 61 62 63 64 65 66 67 68 69 70 72 74 75
59 58 57 57 56 56 55 53 52 52 53 55 56 59 60 61 62 62 62 62 62 61 61 61 61 61 61 61 61 61 62 63 64 65 66 67 68 69 71 72 74 75
55 54 53 52 52 52 51 50 51 53 54 56 58 60 61 61 61 61 61 61 61 61 61 61 61 61 61 61 61 62 63 63 64 64 65 67 68 70 71 73 74 76
52 51 50 50 50 51 51 51 53 55 56 57 58 59 59 59 59 60 60 60 61 61 62 62 61 61 61 61 61 62 62 63 63 64 66 67 69 70 72 73 74 76
50 49 48 49 50 52 52 53 55 56 56 56 56 57 58 58 59 60 61 62 62 62 62 62 61 60 60 60 61 61 62 62 64 65 66 68 69 70 72 73 75 76
50 49 49 50 51 53 54 55 55 55 55 55 55 57 58 60 61 62 62 62 62 62 61 60 60 59 59 60 60 60 61 63 64 65 67 68 69 71 72 73 74 75
50 50 50 51 53 55 55 55 55 55 55 55 56 58 60 61 62 62 62 62 61 60 59 59 58 59 59 59 60 61 62 63 64 65 67 68 70 71 72 73 74 74
51 52 52 53 54 55 55 55 55 55 56 57 58 59 61 62 62 61 61 60 59 58 57 57 58 58 58 59 60 61 62 63 64 66 68 69 71 71 72 72 73 74
53 53 53 54 54 55 55 55 55 56 57 58 59 60 61 61 60 59 58 57 57 56 56 57 57 57 58 59 60 61 62 64 65 67 68 70 71 71 71 71 72 73
54 54 54 53 53 54 55 55 56 57 58 59 59 59 59 58 58 57 56 55 55 55 56 56 57 57 58 59 61 62 63 65 66 67 69 70 70 70 70 71 72 73
53 53 53 53 53 54 55 56 57 57 57 57 57 57 56 56 55 54 54 53 54 55 55 56 57 58 59 61 62 63 64 65 67 68 69 69 69 69 69 70 71 71
Wind_Direction
266 268 269 271 274 275 277 278 280 283 286 289 291 294 295 296 295 295 295 294 294 293 292 291 291 292 292 293 294 295 296 297 298 299 300 300 301 302 303 303 304 305
266 267 268 270 273 275 277 279 280 282 284 287 289 292 295 296 295 295 295 295 295 294 294 294 294 294 295 295 296 297 298 299 300 300 301 302 302 303 304 304 305 306
266 267 268 270 272 275 277 278 279 280 283 286 288 291 294 296 296 296 296 296 296 296 296 296 296 297 297 298 298 299 300 301 301 302 302 303 304 304 305 306 306 307
266 267 269 270 272 275 276 278 279 280 282 286 289 292 294 295 295 296 297 298 298 298 298 299 299 299 300 300 301 302 302 302 302 303 303 304 305 305 306 306 307 307
268 270 271 272 273 276 278 280 281 282 283 286 289 292 293 294 296 297 298 299 300 300 301 301 301 302 302 303 303 303 303 303 303 304 304 305 305 306 306 306 307 307
271 273 274 275 276 278 280 281 282 283 284 286 289 291 293 295 297 299 299 300 301 301 302 302 303 303 303 303 303 303 303 304 304 305 305 305 306 306 306 307 307 308
272 274 275 277 278 279 280 281 282 284 286 288 291 293 295 297 298 299 300 300 301 302 303 303 303 303 303 303 303 304 304 305 305 305 305 305 305 306 306 307 307 308
272 274 275 276 278 279 280 282 284 286 289 291 294 295 297 298 299 299 300 301 301 302 302 303 303 303 303 304 304 305 305 305 304 305 305 305 305 306 307 307 308 309
274 275 277 278 279 281 283 285 287 289 292 294 296 297 298 298 299 300 300 301 301 301 302 302 303 303 304 304 304 304 304 304 304 305 305 305 306 307 307 308 309 309
276 278 279 281 283 284 286 288 290 292 294 295 296 297 298 298 299 299 300 300 301 301 302 303 303 303 304 304 304 304 304 304 304 305 305 306 307 307 308 309 309 309
278 280 281 283 285 287 288 290 292 293 294 295 296 296 297 298 298 299 299 300 301 301 302 303 303 303 303 303 303 303 304 304 305 305 306 307 307 308 309 309 309 309
279 281 283 284 286 287 288 290 292 293 294 294 294 295 296 297 297 298 299 300 301 302 302 303 303 303 303 303 303 303 304 304 305 306 307 307 308 309 309 309 309 309
280 281 283 284 286 287 288 290 291 292 293 293 294 294 295 296 296 298 299 300 301 302 302 302 302 303 303 303 304 304 304 305 306 307 307 308 308 309 309 309 309 310
280 282 283 284 285 287 288 289 291 292 292 292 293 294 294 295 296 298 299 300 301 301 301 302 302 303 303 304 304 304 305 306 307 307 308 308 308 309 309 310 311 312
281 282 283 284 285 286 287 288 290 291 291 291 292 293 294 295 296 298 299 300 300 301 301 302 303 303 304 304 304 305 305 306 307 307 307 308 308 309 310 311 312 313
281 282 283 284 285 285 286 287 289 289 290 290 292 293 294 295 296 298 298 299 300 300 301 302 303 303 304 304 304 305 305 306 306 307 307 308 309 310 311 312 312 314
280 281 283 283 284 285 286 287 288 289 289 290 292 293 294 296 296 297 298 298 299 300 301 302 302 303 303 304 304 305 305 306 306 307 308 309 310 310 311 312 314 315
278 280 281 282 283 284 285 287 288 288 289 291 292 293 294 295 296 297 298 299 300 301 301 301 302 302 303 304 304 305 305 306 307 308 309 309 310 311 312 314 315 316
277 278 280 281 282 283 285 286 287 288 290 291 292 293 294 295 296 297 298 299 300 300 300 301 301 302 303 304 304 305 306 307 308 308 309 310 311 312 314 315 316 317
276 277 279 280 281 283 284 286 287 289 290 292 292 293 294 295 297 297 298 299 299 299 300 300 301 302 303 303 304 305 306 307 308 309 310 311 312 314 315 316 317 317
276 276 278 279 281 283 285 286 287 289 290 291 292 293 295 296 296 297 298 298 298 299 300 301 302 302 303 303 305 306 307 308 309 310 311 312 313 315 316 317 317 318
276 277 278 280 282 283 285 286 287 288 289 291 292 294 295 296 296 297 297 298 298 299 300 301 301 302 303 304 305 306 307 309 310 311 312 313 314 315 316 317 317 318
277 278 280 282 283 284 285 286 286 288 289 291 293 294 294 295 296 297 297 298 299 299 300 300 301 302 304 305 306 307 309 310 311 312 313 314 315 316 316 317 317 318
278 280 282 283 284 284 285 286 287 289 290 292 293 294 294 295 296 297 297 298 299 299 300 301 302 304 305 306 307 308 309 310 311 312 313 315 316 316 316 317 317 318
278 281 282 283 284 285 286 287 288 290 291 292 293 293 294 295 296 297 298 298 299 300 301 303 304 305 306 307 308 309 309 310 311 313 314 315 315 315 316 317 317 318
279 281 282 283 284 285 286 288 289 290 292 293 293 294 295 296 296 297 298 299 300 301 302 304 305 306 307 308 308 309 309 310 312 314 315 315 315 315 315 317 318 319
Height
10702 10703 10704 10704 10704 10703 10702 10701 10700 10699 10698 10696 10695 10694 10693 10691 10688 10686 10683 10681 10679 10677 10674 10671 10668 10666 10663 10660 10658 10654 10651 10648 10645 10642 10639 10636 10631 10628 10624 10620 10616 10613
10698 10699 10699 10699 10699 10698 10697 10696 10695 10694 10693 10692 10691 10689 10687 10685 10682 10680 10678 10675 10673 10671 10668 10665 10662 10659 10656 10653 10651 10647 10644 10640 10637 10634 10631 10628 10624 10620 10616 10612 10608 10604
10693 10694 10694 10694 10694 10693 10692 10690 10689 10688 10687 10686 10685 10684 10682 10679 10676 10674 10672 10669 10667 10664 10662 10659 10656 10652 10649 10646 10643 10640 10636 10633 10630 10626 10623 10620 10617 10613 10608 10604 10600 10596
10689 10689 10689 10689 10689 10688 10686 10685 10684 10682 10681 10680 10679 10678 10675 10673 10670 10668 10665 10662 10660 10657 10655 10652 10649 10645 10641 10638 10635 10632 10629 10626 10622 10619 10616 10613 10609 10605 10601 10596 10592 10588
10684 10684 10684 10684 10683 10682 10681 10679 10678 10676 10676 10675 10673 10671 10669 10666 10664 10661 10658 10655 10652 10650 10647 10644 10641 10638 10634 10631 10628 10626 10623 10619 10616 10612 10608 10605 10601 10597 10593 10589 10585 10580
10678 10678 10678 10677 10677 10675 10674 10673 10671 10671 10670 10668 10667 10665 10662 10660 10657 10654 10651 10648 10646 10643 10640 10637 10634 10631 10628 10625 10622 10619 10616 10613 10609 10605 10602 10598 10594 10590 10586 10581 10577 10572
10673 10672 10672 10671 10670 10669 10668 10667 10666 10665 10663 10662 10659 10657 10655 10653 10650 10647 10645 10642 10639 10637 10634 10631 10628 10625 10622 10619 10616 10613 10610 10606 10603 10599 10595 10590 10586 10582 10578 10574 10569 10565
10668 10667 10666 10666 10665 10663 10662 10661 10660 10659 10657 10655 10652 10650 10648 10646 10643 10641 10638 10635 10633 10630 10628 10625 10622 10619 10616 10613 10610 10606 10603 10599 10596 10592 10587 10583 10578 10575 10571 10566 10561 10557
10662 10662 10661 10660 10659 10657 10655 10654 10653 10652 10650 10648 10645 10643 10641 10639 10637 10635 10632 10629 10627 10624 10622 10619 10616 10613 10609 10606 10603 10599 10596 10592 10588 10585 10580 10575 10571 10567 10563 10559 10554 10549
10657 10656 10655 10654 10652 10650 10649 10648 10647 10645 10643 10641 10639 10637 10635 10633 10631 10628 10626 10623 10620 10618 10615 10613 10609 10606 10603 10600 10596 10593 10589 10585 10581 10577 10573 10568 10564 10560 10556 10551 10546 10541
10652 10651 10650 10648 10646 10644 10643 10642 10641 10639 10637 10635 10633 10631 10629 10627 10624 10622 10620 10617 10614 10612 10609 10606 10603 10600 10597 10593 10590 10586 10582 10578 10574 10570 10566 10561 10557 10552 10548 10544 10539 10533
10647 10646 10645 10643 10641 10639 10638 10637 10635 10633 10631 10629 10627 10625 10623 10621 10618 10616 10613 10611 10608 10606 10603 10600 10597 10594 10590 10587 10583 10579 10575 10571 10567 10564 10559 10554 10550 10545 10541 10537 10532 10527
10641 10641 10640 10638 10635 10634 10632 10631 10630 10628 10625 10623 10621 10620 10617 10614 10612 10610 10607 10605 10602 10599 10597 10594 10590 10587 10584 10580 10576 10573 10569 10565 10561 10557 10553 10548 10543 10539 10534 10530 10525 10519
10636 10635 10634 10632 10630 10628 10627 10626 10624 10622 10619 10617 10615 10613 10611 10608 10606 10604 10602 10599 10596 10593 10590 10587 10584 10581 10578 10574 10570 10567 10563 10559 10555 10551 10547 10542 10537 10532 10527 10522 10517 10512
10630 10629 10628 10626 10624 10622 10621 10620 10619 10617 10614 10611 10610 10607 10604 10602 10601 10598 10596 10593 10590 10587 10584 10581 10578 10575 10572 10568 10564 10561 10557 10553 10549 10545 10541 10536 10532 10527 10521 10516 10511 10505
10623 10623 10621 10619 10617 10615 10615 10614 10613 10611 10608 10606 10604 10601 10599 10597 10595 10592 10590 10587 10584 10581 10578 10575 10572 10569 10566 10562 10559 10555 10551 10547 10543 10539 10535 10531 10526 10521 10516 10510 10505 10499
10617 10616 10614 10612 10610 10609 10609 10609 10607 10605 10603 10601 10598 10596 10593 10591 10589 10586 10584 10581 10578 10575 10572 10569 10566 10563 10560 10556 10553 10549 10545 10542 10538 10534 10529 10525 10520 10515 10510 10505 10499 10493
10611 10610 10609 10606 10604 10603 10603 10603 10602 10599 10597 10595 10593 10590 10587 10585 10583 10580 10577 10575 10572 10569 10566 10564 10561 10558 10554 10551 10547 10543 10539 10536 10532 10528 10524 10519 10515 10510 10504 10499 10493 10486
10605 10604 10603 10601 10599 10598 10598 10597 10596 10594 10591 10590 10587 10584 10581 10579 10577 10574 10571 10569 10566 10564 10561 10558 10555 10552 10548 10545 10541 10538 10534 10530 10526 10522 10518 10514 10509 10504 10498 10492 10486 10480
10598 10599 10598 10596 10594 10593 10592 10592 10590 10588 10586 10584 10581 10578 10575 10573 10571 10568 10566 10563 10561 10558 10555 10552 10549 10546 10542 10539 10536 10532 10528 10525 10520 10516 10512 10507 10502 10497 10492 10486 10480 10474
10592 10593 10592 10590 10588 10587 10587 10586 10584 10582 10579 10577 10575 10572 10569 10567 10565 10563 10560 10558 10555 10552 10549 10546 10543 10540 10537 10534 10530 10527 10523 10519 10515 10510 10506 10501 10496 10491 10486 10480 10474 10468
10586 10586 10586 10585 10583 10581 10580 10579 10578 10576 10574 10571 10569 10566 10563 10561 10559 10557 10555 10552 10549 10547 10544 10541 10538 10534 10531 10528 10525 10521 10517 10513 10509 10504 10500 10495 10491 10485 10480 10474 10469 10463
10580 10580 10580 10579 10577 10575 10574 10573 10572 10570 10567 10565 10563 10560 10557 10555 10553 10551 10549 10546 10544 10541 10538 10535 10532 10529 10526 10522 10519 10515 10511 10507 10503 10499 10494 10490 10485 10480 10474 10469 10463 10457
10573 10573 10573 10572 10571 10569 10567 10566 10565 10564 10561 10559 10557 10554 10551 10549 10547 10545 10543 10541 10538 10535 10532 10529 10526 10523 10520 10517 10513 10509 10505 10501 10497 10493 10488 10484 10479 10474 10469 10463 10458 10452
10568 10568 10567 10566 10565 10563 10561 10560 10559 10557 10555 10553 10551 10548 10546 10544 10542 10540 10537 10535 10532 10529 10526 10524 10521 10517 10514 10511 10507 10503 10499 10495 10491 10487 10482 10478 10473 10468 10463 10458 10453 10447
10563 10562 10561 10560 10559 10557 10555 10554 10553 10551 10550 10547 10544 10542 10540 10538 10536 10534 10532 10529 10526 10523 10521 10518 10515 10512 10508 10505 10501 10498 10494 10489 10485 10481 10476 10472 10467 10462 10458 10453 10447 10441